Time,TemperatureF,DewpointF,PressureIn,WindDirection,WindDirectionDegrees,WindSpeedMPH,WindSpeedGustMPH,Humidity,HourlyPrecipIn,Conditions,Clouds,dailyrainin,SoftwareType,DateUTC
2013-06-17 00:38:00,65.8,57.0,29.65,SSW,203,0.0,0.0,73,0.00,,,0.00,WUHU21623XXSP,2013-06-17 04:38:00,
2013-06-17 01:38:00,64.5,56.5,29.66,SSW,203,0.0,0.0,75,0.00,,,0.00,WUHU21623XXSP,2013-06-17 05:38:00,
2013-06-17 02:38:00,63.3,55.7,29.66,South,180,0.0,0.0,76,0.00,,,0.00,WUHU21623XXSP,2013-06-17 06:38:00,
2013-06-17 03:38:00,61.6,54.8,29.68,WSW,248,0.0,0.0,78,0.00,,,0.00,WUHU21623XXSP,2013-06-17 07:38:00,
2013-06-17 04:38:00,62.7,54.8,29.67,WSW,248,0.0,0.0,75,0.00,,,0.00,WUHU21623XXSP,2013-06-17 08:38:00,
2013-06-17 05:38:00,61.8,53.9,29.66,SW,225,0.0,0.0,75,0.00,,,0.00,WUHU21623XXSP,2013-06-17 09:38:00,
2013-06-17 06:38:00,61.8,54.6,29.68,SW,225,0.0,0.0,77,0.00,,,0.00,WUHU21623XXSP,2013-06-17 10:38:00,
2013-06-17 07:38:00,63.4,55.8,29.71,West,270,0.0,0.0,76,0.00,,,0.00,WUHU21623XXSP,2013-06-17 11:38:00,
2013-06-17 08:38:00,73.0,57.5,29.71,NW,315,5.6,5.6,58,0.00,,,0.00,WUHU21623XXSP,2013-06-17 12:38:00,
2013-06-17 09:38:00,69.9,56.5,29.71,NW,315,0.0,0.0,62,0.00,,,0.00,WUHU21623XXSP,2013-06-17 13:38:00,
2013-06-17 10:38:00,71.0,56.1,29.73,NNE,23,0.0,0.0,59,0.00,,,0.00,WUHU21623XXSP,2013-06-17 14:38:00,
2013-06-17 10:56:00,72.1,58.1,29.72,ENE,67,0.0,0.0,61,0.00,,,0.00,WUHU21623XXSP,2013-06-17 14:56:00,
2013-06-17 11:07:00,72.4,57.9,29.72,SSW,202,0.0,0.0,60,0.00,,,0.00,WUHU21623XXSP,2013-06-17 15:07:00,
2013-06-17 11:12:00,72.8,58.3,29.72,SSW,202,0.0,0.0,60,0.00,,,0.00,WUHU21623XXSP,2013-06-17 15:12:00,
2013-06-17 11:17:00,73.3,58.8,29.72,ESE,112,0.0,0.0,60,0.00,,,0.00,WUHU21623XXSP,2013-06-17 15:17:00,
2013-06-17 11:22:00,73.3,58.8,29.72,ENE,67,3.1,3.1,60,0.00,,,0.00,WUHU21623XXSP,2013-06-17 15:22:00,
2013-06-17 11:27:00,73.9,59.3,29.72,SE,135,0.0,3.1,60,0.00,,,0.00,WUHU21623XXSP,2013-06-17 15:27:00,
2013-06-17 11:32:00,74.2,59.1,29.73,NE,45,0.0,0.0,59,0.00,,,0.00,WUHU21623XXSP,2013-06-17 15:32:00,
2013-06-17 11:37:00,74.6,59.0,29.72,NE,45,0.0,0.0,58,0.00,,,0.00,WUHU21623XXSP,2013-06-17 15:37:00,
2013-06-17 11:42:00,74.4,58.8,29.73,ENE,67,2.7,2.7,58,0.00,,,0.00,WUHU21623XXSP,2013-06-17 15:42:00,
2013-06-17 11:47:00,74.4,58.8,29.72,NE,45,3.8,3.8,58,0.00,,,0.00,WUHU21623XXSP,2013-06-17 15:47:00,
2013-06-17 11:54:00,74.4,58.8,29.72,NE,45,4.0,4.0,58,0.00,,,0.00,WUHU21623XXSP,2013-06-17 15:54:00,
2013-06-17 11:59:00,74.4,58.8,29.73,NE,45,2.5,4.0,58,0.00,,,0.00,WUHU21623XXSP,2013-06-17 15:59:00,
2013-06-17 12:04:00,74.6,59.0,29.72,ESE,112,0.0,2.5,58,0.00,,,0.00,WUHU21623XXSP,2013-06-17 16:04:00,
2013-06-17 12:09:00,74.6,59.0,29.72,NNE,22,2.2,2.2,58,0.00,,,0.00,WUHU21623XXSP,2013-06-17 16:09:00,
2013-06-17 12:14:00,74.6,58.5,29.72,NNE,22,0.0,2.2,57,0.00,,,0.00,WUHU21623XXSP,2013-06-17 16:14:00,
2013-06-17 12:19:00,74.6,59.0,29.72,NNE,22,0.0,0.0,58,0.00,,,0.00,WUHU21623XXSP,2013-06-17 16:19:00,
2013-06-17 12:24:00,75.1,60.0,29.71,NE,45,3.6,3.6,59,0.00,,,0.00,WUHU21623XXSP,2013-06-17 16:24:00,
2013-06-17 12:29:00,75.3,59.2,29.71,NNE,22,6.3,6.3,57,0.00,,,0.00,WUHU21623XXSP,2013-06-17 16:29:00,
2013-06-17 12:34:00,75.3,59.2,29.70,NNE,22,0.0,6.3,57,0.00,,,0.00,WUHU21623XXSP,2013-06-17 16:34:00,
2013-06-17 12:39:00,75.3,59.2,29.70,NNE,22,0.0,0.0,57,0.00,,,0.00,WUHU21623XXSP,2013-06-17 16:39:00,
2013-06-17 12:44:00,75.3,59.2,29.70,NE,45,0.0,0.0,57,0.00,,,0.00,WUHU21623XXSP,2013-06-17 16:44:00,
2013-06-17 12:50:00,75.7,59.6,29.70,ENE,67,0.0,0.0,57,0.00,,,0.00,WUHU21623XXSP,2013-06-17 16:50:00,
2013-06-17 12:55:00,75.9,59.3,29.70,NE,45,3.8,3.8,56,0.00,,,0.00,WUHU21623XXSP,2013-06-17 16:55:00,
2013-06-17 13:00:00,75.9,59.8,29.70,NNW,337,0.0,3.8,57,0.00,,,0.00,WUHU21623XXSP,2013-06-17 17:00:00,
2013-06-17 13:05:00,76.0,59.9,29.70,NNW,337,0.0,0.0,57,0.00,,,0.00,WUHU21623XXSP,2013-06-17 17:05:00,
2013-06-17 13:10:00,76.2,60.0,29.70,NE,45,0.0,0.0,57,0.00,,,0.00,WUHU21623XXSP,2013-06-17 17:10:00,
2013-06-17 13:15:00,76.6,59.9,29.70,ENE,67,0.0,0.0,56,0.00,,,0.00,WUHU21623XXSP,2013-06-17 17:15:00,
2013-06-17 13:20:00,76.9,61.2,29.70,ENE,67,0.0,0.0,58,0.00,,,0.00,WUHU21623XXSP,2013-06-17 17:20:00,
2013-06-17 13:25:00,77.1,60.4,29.70,South,180,0.0,0.0,56,0.00,,,0.00,WUHU21623XXSP,2013-06-17 17:25:00,
2013-06-17 13:30:00,77.1,59.9,29.70,South,180,1.1,1.1,55,0.00,,,0.00,WUHU21623XXSP,2013-06-17 17:30:00,
2013-06-17 13:35:00,77.5,60.2,29.70,South,180,0.0,1.1,55,0.00,,,0.00,WUHU21623XXSP,2013-06-17 17:35:00,
2013-06-17 13:40:00,77.7,60.9,29.70,SSE,157,5.6,5.6,56,0.00,,,0.00,WUHU21623XXSP,2013-06-17 17:40:00,
2013-06-17 13:45:00,78.2,60.9,29.69,NW,315,0.0,5.6,55,0.00,,,0.00,WUHU21623XXSP,2013-06-17 17:45:00,
2013-06-17 13:50:00,78.4,60.5,29.70,NNE,22,0.0,0.0,54,0.00,,,0.00,WUHU21623XXSP,2013-06-17 17:50:00,
2013-06-17 13:55:00,78.6,61.3,29.69,NNE,22,0.0,0.0,55,0.00,,,0.00,WUHU21623XXSP,2013-06-17 17:55:00,
2013-06-17 14:00:00,78.9,61.0,29.68,West,270,3.1,6.7,54,0.00,,,0.00,WUHU21623XXSP,2013-06-17 18:00:00,
2013-06-17 14:05:00,79.1,61.2,29.68,West,270,0.0,6.7,54,0.00,,,0.00,WUHU21623XXSP,2013-06-17 18:05:00,
2013-06-17 14:10:00,79.3,61.4,29.68,ESE,112,0.0,0.0,54,0.00,,,0.00,WUHU21623XXSP,2013-06-17 18:10:00,
2013-06-17 14:20:00,80.2,61.7,29.69,SSW,202,8.7,8.7,53,0.00,,,0.00,WUHU21623XXSP,2013-06-17 18:20:00,
2013-06-17 14:26:00,81.1,62.0,29.68,SW,225,4.0,8.7,52,0.00,,,0.00,WUHU21623XXSP,2013-06-17 18:26:00,
2013-06-17 14:31:00,81.3,61.0,29.68,NNW,337,0.0,4.0,50,0.00,,,0.00,WUHU21623XXSP,2013-06-17 18:31:00,
2013-06-17 14:37:00,81.1,61.4,29.69,NE,45,7.8,7.8,51,0.00,,,0.00,WUHU21623XXSP,2013-06-17 18:37:00,
2013-06-17 14:42:00,80.2,60.6,29.69,North,0,7.8,7.8,51,0.00,,,0.00,WUHU21623XXSP,2013-06-17 18:42:00,
2013-06-17 14:47:00,79.3,60.8,29.70,ENE,67,7.6,7.8,53,0.00,,,0.00,WUHU21623XXSP,2013-06-17 18:47:00,
2013-06-17 14:52:00,77.8,60.0,29.70,NE,45,4.0,7.6,54,0.00,,,0.00,WUHU21623XXSP,2013-06-17 18:52:00,
2013-06-17 14:58:00,74.8,59.7,29.72,NNE,22,4.3,4.3,59,0.00,,,0.00,WUHU21623XXSP,2013-06-17 18:58:00,
2013-06-17 15:03:00,74.1,60.0,29.73,NNE,22,4.3,4.3,61,0.00,,,0.00,WUHU21623XXSP,2013-06-17 19:03:00,
2013-06-17 15:08:00,73.3,60.6,29.75,West,270,5.4,5.4,64,0.04,,,0.00,WUHU21623XXSP,2013-06-17 19:08:00,
2013-06-17 15:13:00,69.7,59.7,29.70,SSE,157,0.0,5.4,70,0.18,,,0.04,WUHU21623XXSP,2013-06-17 19:13:00,
2013-06-17 15:18:00,69.7,61.9,29.69,SSE,157,0.0,0.0,76,0.18,,,0.18,WUHU21623XXSP,2013-06-17 19:18:00,
2013-06-17 15:23:00,69.9,62.1,29.69,SSE,157,0.0,0.0,76,0.18,,,0.18,WUHU21623XXSP,2013-06-17 19:23:00,
2013-06-17 15:28:00,71.0,63.2,29.69,SSE,157,0.0,0.0,76,0.20,,,0.20,WUHU21623XXSP,2013-06-17 19:28:00,
2013-06-17 15:33:00,72.3,63.7,29.69,ENE,67,2.5,2.5,74,0.20,,,0.20,WUHU21623XXSP,2013-06-17 19:33:00,
2013-06-17 15:38:00,72.3,63.7,29.68,NNE,22,3.1,3.1,74,0.20,,,0.20,WUHU21623XXSP,2013-06-17 19:38:00,
2013-06-17 15:43:00,72.3,63.3,29.68,ENE,67,2.9,3.1,73,0.20,,,0.20,WUHU21623XXSP,2013-06-17 19:43:00,
2013-06-17 15:48:00,72.4,63.8,29.68,ENE,67,0.0,2.9,74,0.20,,,0.20,WUHU21623XXSP,2013-06-17 19:48:00,
2013-06-17 15:53:00,72.6,64.0,29.68,East,90,1.6,1.6,74,0.20,,,0.20,WUHU21623XXSP,2013-06-17 19:53:00,
2013-06-17 15:58:00,72.8,63.4,29.68,NE,45,3.6,3.6,72,0.20,,,0.20,WUHU21623XXSP,2013-06-17 19:58:00,
2013-06-17 16:05:00,72.8,63.0,29.68,NE,45,0.0,3.6,71,0.06,,,0.20,WUHU21623XXSP,2013-06-17 20:05:00,
2013-06-17 16:10:00,72.8,63.0,29.68,ENE,67,2.7,2.7,71,0.02,,,0.20,WUHU21623XXSP,2013-06-17 20:10:00,
2013-06-17 16:15:00,72.8,63.4,29.68,ENE,67,2.9,2.9,72,0.02,,,0.20,WUHU21623XXSP,2013-06-17 20:15:00,
2013-06-17 16:20:00,72.8,63.0,29.68,ENE,67,5.4,5.4,71,0.00,,,0.20,WUHU21623XXSP,2013-06-17 20:20:00,
2013-06-17 16:28:00,73.0,63.6,29.68,ENE,67,0.0,5.4,72,0.00,,,0.20,WUHU21623XXSP,2013-06-17 20:28:00,
2013-06-17 16:33:00,73.0,63.6,29.68,NE,45,1.6,1.6,72,0.00,,,0.20,WUHU21623XXSP,2013-06-17 20:33:00,
2013-06-17 16:38:00,73.3,63.5,29.68,ENE,67,1.8,1.8,71,0.00,,,0.20,WUHU21623XXSP,2013-06-17 20:38:00,
2013-06-17 16:43:00,73.3,63.5,29.68,ENE,67,2.7,2.7,71,0.00,,,0.20,WUHU21623XXSP,2013-06-17 20:43:00,
2013-06-17 16:50:00,73.3,63.5,29.67,ENE,67,1.1,2.7,71,0.00,,,0.20,WUHU21623XXSP,2013-06-17 20:50:00,
2013-06-17 16:55:00,73.5,63.7,29.67,East,90,5.8,5.8,71,0.00,,,0.20,WUHU21623XXSP,2013-06-17 20:55:00,
2013-06-17 17:02:00,73.5,62.9,29.66,NE,45,3.8,5.8,69,0.00,,,0.20,WUHU21623XXSP,2013-06-17 21:02:00,
2013-06-17 17:13:00,73.5,62.9,29.65,East,90,2.5,2.5,69,0.00,,,0.20,WUHU21623XXSP,2013-06-17 21:13:00,
2013-06-17 17:19:00,73.7,62.7,29.66,NNE,22,1.8,2.5,68,0.00,,,0.20,WUHU21623XXSP,2013-06-17 21:19:00,
2013-06-17 17:28:00,73.9,62.5,29.66,NE,45,6.3,6.3,67,0.00,,,0.20,WUHU21623XXSP,2013-06-17 21:28:00,
2013-06-17 17:33:00,73.5,61.7,29.66,North,0,0.0,6.3,66,0.00,,,0.20,WUHU21623XXSP,2013-06-17 21:33:00,
2013-06-17 17:38:00,73.3,61.5,29.66,East,90,8.3,8.3,66,0.00,,,0.20,WUHU21623XXSP,2013-06-17 21:38:00,
2013-06-17 17:45:00,72.6,61.2,29.65,NE,45,7.2,8.3,67,0.00,,,0.20,WUHU21623XXSP,2013-06-17 21:45:00,
2013-06-17 17:52:00,71.7,60.8,29.65,SSE,157,9.2,9.2,68,0.00,,,0.20,WUHU21623XXSP,2013-06-17 21:52:00,
2013-06-17 17:57:00,71.2,60.7,29.65,ESE,112,4.5,9.2,69,0.00,,,0.20,WUHU21623XXSP,2013-06-17 21:57:00,
2013-06-17 18:02:00,70.6,60.1,29.65,NE,45,12.5,12.5,69,0.00,,,0.20,WUHU21623XXSP,2013-06-17 22:02:00,
2013-06-17 18:07:00,70.1,60.0,29.67,NW,315,5.4,12.5,70,0.00,,,0.20,WUHU21623XXSP,2013-06-17 22:07:00,
2013-06-17 18:12:00,69.7,60.4,29.69,WNW,292,4.0,5.4,72,0.00,,,0.20,WUHU21623XXSP,2013-06-17 22:12:00,
2013-06-17 18:17:00,68.8,60.3,29.70,WSW,247,0.0,4.0,74,0.00,,,0.20,WUHU21623XXSP,2013-06-17 22:17:00,
2013-06-17 18:22:00,66.3,58.6,29.70,East,90,4.3,4.3,76,0.10,,,0.20,WUHU21623XXSP,2013-06-17 22:22:00,
2013-06-17 18:28:00,65.4,58.5,29.66,NNW,337,0.0,4.3,78,0.18,,,0.30,WUHU21623XXSP,2013-06-17 22:28:00,
2013-06-17 18:33:00,65.2,58.9,29.68,NNW,337,0.0,0.0,80,0.26,,,0.39,WUHU21623XXSP,2013-06-17 22:33:00,
2013-06-17 18:39:00,65.2,58.9,29.68,SSW,202,0.0,0.0,80,0.26,,,0.47,WUHU21623XXSP,2013-06-17 22:39:00,
2013-06-17 18:44:00,65.1,58.8,29.68,NW,315,0.0,0.0,80,0.26,,,0.47,WUHU21623XXSP,2013-06-17 22:44:00,
2013-06-17 18:49:00,64.9,58.7,29.67,NW,315,0.0,0.0,80,0.26,,,0.47,WUHU21623XXSP,2013-06-17 22:49:00,
2013-06-17 18:54:00,64.5,58.3,29.67,NW,315,0.0,0.0,80,0.26,,,0.47,WUHU21623XXSP,2013-06-17 22:54:00,
2013-06-17 18:59:00,64.5,58.3,29.67,NW,315,0.0,0.0,80,0.26,,,0.47,WUHU21623XXSP,2013-06-17 22:59:00,
2013-06-17 19:04:00,64.3,58.4,29.67,NNW,337,5.4,5.4,81,0.26,,,0.47,WUHU21623XXSP,2013-06-17 23:04:00,
2013-06-17 19:11:00,64.2,59.0,29.69,NW,315,0.0,5.4,83,0.26,,,0.47,WUHU21623XXSP,2013-06-17 23:11:00,
2013-06-17 19:16:00,64.0,58.8,29.68,NNE,22,4.7,4.7,83,0.26,,,0.47,WUHU21623XXSP,2013-06-17 23:16:00,
2013-06-17 19:21:00,64.0,59.1,29.68,NNE,22,1.8,4.7,84,0.16,,,0.47,WUHU21623XXSP,2013-06-17 23:21:00,
2013-06-17 19:28:00,64.3,59.4,29.68,NW,315,0.0,1.8,84,0.00,,,0.47,WUHU21623XXSP,2013-06-17 23:28:00,
2013-06-17 19:33:00,64.5,59.6,29.68,ENE,67,0.0,0.0,84,0.02,,,0.47,WUHU21623XXSP,2013-06-17 23:33:00,
2013-06-17 19:39:00,64.5,59.6,29.68,ESE,112,7.6,7.6,84,0.02,,,0.49,WUHU21623XXSP,2013-06-17 23:39:00,
2013-06-17 19:44:00,64.5,59.3,29.68,ENE,67,0.0,7.6,83,0.02,,,0.49,WUHU21623XXSP,2013-06-17 23:44:00,
2013-06-17 19:49:00,64.2,59.0,29.68,ENE,67,0.0,0.0,83,0.02,,,0.49,WUHU21623XXSP,2013-06-17 23:49:00,
2013-06-17 19:54:00,63.8,58.6,29.68,NE,45,5.1,5.1,83,0.02,,,0.49,WUHU21623XXSP,2013-06-17 23:54:00,
2013-06-17 19:59:00,63.6,58.4,29.68,NE,45,0.0,5.1,83,0.02,,,0.49,WUHU21623XXSP,2013-06-17 23:59:00,
2013-06-17 20:04:00,63.3,58.1,29.70,East,90,0.0,0.0,83,0.02,,,0.49,WUHU21623XXSP,2013-06-18 00:04:00,
2013-06-17 20:09:00,63.3,58.1,29.69,NE,45,2.9,2.9,83,0.02,,,0.49,WUHU21623XXSP,2013-06-18 00:09:00,
2013-06-17 20:14:00,63.4,58.2,29.69,NE,45,8.3,8.3,83,0.02,,,0.49,WUHU21623XXSP,2013-06-18 00:14:00,
2013-06-17 20:19:00,63.6,58.4,29.68,East,90,4.7,8.3,83,0.02,,,0.49,WUHU21623XXSP,2013-06-18 00:19:00,
2013-06-17 20:26:00,63.6,58.4,29.71,NE,45,0.9,0.9,83,0.04,,,0.49,WUHU21623XXSP,2013-06-18 00:26:00,
2013-06-17 20:33:00,63.3,58.1,29.71,NE,45,8.5,8.5,83,0.04,,,0.51,WUHU21623XXSP,2013-06-18 00:33:00,
2013-06-17 20:45:00,62.5,57.3,29.72,SE,135,2.5,2.5,83,0.04,,,0.53,WUHU21623XXSP,2013-06-18 00:45:00,
2013-06-17 20:50:00,62.2,56.7,29.71,NE,45,3.4,3.4,82,0.04,,,0.53,WUHU21623XXSP,2013-06-18 00:50:00,
2013-06-17 20:55:00,61.6,56.1,29.72,NE,45,8.3,8.3,82,0.04,,,0.53,WUHU21623XXSP,2013-06-18 00:55:00,
2013-06-17 21:00:00,61.5,56.0,29.71,NE,45,1.6,8.3,82,0.04,,,0.53,WUHU21623XXSP,2013-06-18 01:00:00,
2013-06-17 21:05:00,61.3,55.8,29.72,ESE,112,3.4,3.4,82,0.04,,,0.53,WUHU21623XXSP,2013-06-18 01:05:00,
2013-06-17 21:10:00,60.9,55.4,29.72,ENE,67,5.1,5.1,82,0.04,,,0.53,WUHU21623XXSP,2013-06-18 01:10:00,
2013-06-17 21:15:00,60.2,55.0,29.72,ENE,67,2.7,5.1,83,0.04,,,0.53,WUHU21623XXSP,2013-06-18 01:15:00,
2013-06-17 21:20:00,60.0,54.8,29.72,NE,45,5.8,5.8,83,0.02,,,0.53,WUHU21623XXSP,2013-06-18 01:20:00,
2013-06-17 21:25:00,60.0,54.8,29.73,NE,45,3.8,5.8,83,0.02,,,0.53,WUHU21623XXSP,2013-06-18 01:25:00,
2013-06-17 21:30:00,59.8,54.7,29.73,NE,45,4.9,4.9,83,0.00,,,0.53,WUHU21623XXSP,2013-06-18 01:30:00,
2013-06-17 21:35:00,59.5,54.0,29.73,NE,45,7.2,7.2,82,0.00,,,0.53,WUHU21623XXSP,2013-06-18 01:35:00,
2013-06-17 21:43:00,59.3,54.2,29.74,NE,45,0.0,7.2,83,0.00,,,0.53,WUHU21623XXSP,2013-06-18 01:43:00,
2013-06-17 21:48:00,59.1,54.0,29.74,ENE,67,1.6,1.6,83,0.00,,,0.53,WUHU21623XXSP,2013-06-18 01:48:00,
2013-06-17 21:53:00,59.1,53.6,29.74,ESE,112,6.3,6.3,82,0.00,,,0.53,WUHU21623XXSP,2013-06-18 01:53:00,
2013-06-17 21:58:00,59.1,53.6,29.74,East,90,3.6,6.3,82,0.00,,,0.53,WUHU21623XXSP,2013-06-18 01:58:00,
2013-06-17 22:03:00,59.1,53.6,29.74,NE,45,4.0,4.9,82,0.00,,,0.53,WUHU21623XXSP,2013-06-18 02:03:00,
2013-06-17 22:08:00,58.9,53.4,29.74,ESE,112,3.6,4.0,82,0.00,,,0.53,WUHU21623XXSP,2013-06-18 02:08:00,
2013-06-17 22:13:00,58.8,53.4,29.75,NE,45,1.3,3.6,82,0.00,,,0.53,WUHU21623XXSP,2013-06-18 02:13:00,
2013-06-17 22:18:00,58.6,53.2,29.75,ESE,112,0.0,1.3,82,0.00,,,0.53,WUHU21623XXSP,2013-06-18 02:18:00,
2013-06-17 22:23:00,58.4,53.0,29.74,ENE,67,2.9,2.9,82,0.00,,,0.53,WUHU21623XXSP,2013-06-18 02:23:00,
2013-06-17 22:28:00,58.2,52.8,29.75,East,90,3.8,3.8,82,0.00,,,0.53,WUHU21623XXSP,2013-06-18 02:28:00,
2013-06-17 22:33:00,58.2,52.8,29.75,ENE,67,3.4,3.8,82,0.00,,,0.53,WUHU21623XXSP,2013-06-18 02:33:00,
2013-06-17 22:39:00,58.0,52.6,29.75,NNE,22,0.0,3.4,82,0.00,,,0.53,WUHU21623XXSP,2013-06-18 02:39:00,
2013-06-17 22:49:00,57.7,52.3,29.75,ESE,112,6.5,6.5,82,0.00,,,0.53,WUHU21623XXSP,2013-06-18 02:49:00,
2013-06-17 22:54:00,57.3,51.9,29.76,ENE,67,1.8,6.5,82,0.00,,,0.53,WUHU21623XXSP,2013-06-18 02:54:00,
2013-06-17 22:59:00,57.3,51.9,29.75,East,90,1.3,1.8,82,0.00,,,0.53,WUHU21623XXSP,2013-06-18 02:59:00,
2013-06-17 23:04:00,57.3,51.9,29.75,East,90,1.3,1.3,82,0.00,,,0.53,WUHU21623XXSP,2013-06-18 03:04:00,
2013-06-17 23:09:00,57.3,51.9,29.75,NE,45,5.4,5.4,82,0.00,,,0.53,WUHU21623XXSP,2013-06-18 03:09:00,
2013-06-17 23:14:00,57.3,51.9,29.75,NE,45,5.4,5.4,82,0.00,,,0.53,WUHU21623XXSP,2013-06-18 03:14:00,
2013-06-17 23:19:00,57.1,51.7,29.76,ENE,67,7.2,7.2,82,0.00,,,0.53,WUHU21623XXSP,2013-06-18 03:19:00,
2013-06-17 23:24:00,57.0,51.6,29.76,ENE,67,7.2,7.2,82,0.00,,,0.53,WUHU21623XXSP,2013-06-18 03:24:00,
2013-06-17 23:29:00,56.8,51.4,29.76,ENE,67,3.4,7.2,82,0.00,,,0.53,WUHU21623XXSP,2013-06-18 03:29:00,
2013-06-17 23:34:00,56.6,51.2,29.76,NE,45,0.0,3.4,82,0.00,,,0.53,WUHU21623XXSP,2013-06-18 03:34:00,
2013-06-17 23:43:00,56.6,51.5,29.76,ENE,67,1.8,1.8,83,0.00,,,0.53,WUHU21623XXSP,2013-06-18 03:43:00,
2013-06-17 23:48:00,56.6,51.5,29.76,ENE,67,1.8,1.8,83,0.00,,,0.53,WUHU21623XXSP,2013-06-18 03:48:00,